Limon, CO

5:54 PM MDT on October 21, 2017 (GMT -0600)
Limon Municipal

Weather History for KLIC - January, 2014

Change the Weather History Date:

Saturday, January 4, 2014

  Actual Average Record
Temperature  
Mean Temperature 14 °F -  
Max Temperature 34 °F - 66 °F (2001)
Min Temperature -7 °F - -10 °F (2015)
Degree Days  
Heating Degree Days 51    
Month to date heating degree days 166  
Cooling Degree Days 0    
Month to date cooling degree days 0  
Moisture  
Dew Point 13 °F    
Average Humidity 82    
Maximum Humidity 95    
Minimum Humidity 69    
Precipitation  
Precipitation 0.18 in - 0.18 in (2014)
Month to date precipitation 0.24  
Year to date precipitation 0.24  
Sea Level Pressure  
Sea Level Pressure 29.93 in    
Wind  
Wind Speed 15 mph (North)    
Max Wind Speed 28 mph    
Max Gust Speed 35 mph    
Visibility 4 miles    
Events Fog , Snow    
T = Trace of Precipitation, MM = Missing Value Source: NWS Daily Summary

Daily Weather History Graph

Daily Weather History Graph

Search for Another Location

Airport or City:

Trip Planner

Search our weather history database for the weather conditions in past years. The results will help you decide how hot, cold, wet, or windy it might be!

Date:

Astronomy

Jan. 04, 2014 Rise Set
Actual Time 7:14 AM MST 4:45 PM MST
Civil Twilight 6:44 AM MST 5:14 PM MST
Nautical Twilight 6:11 AM MST 5:48 PM MST
Astronomical Twilight 5:38 AM MST 6:20 PM MST
Moon 9:23 AM MST (1/4) 9:05 PM MST (1/4)
Length of Visible Light 10h 30m
Length of Day
9h 30m
Waxing Crescent, 16% of the Moon is Illuminated
Jan 4
Waxing Crescent
Jan 7
First Quarter
Jan 15
Full
Jan 23
Last Quarter
Jan 30
New

Hourly Weather History & Observations

Time (MST) Temp. Windchill Dew Point Humidity Pressure Visibility Wind Dir Wind Speed Gust Speed Precip Events Conditions
12:55 AM 33.1 °F 21.9 °F 25.0 °F 72% 29.62 in 10.0 mi North 18.4 mph 24.2 mph N/A   Clear
1:34 AM 28.9 °F 14.8 °F 26.1 °F 89% 29.74 in 10.0 mi NNE 24.2 mph 32.2 mph N/A   Mostly Cloudy
1:55 AM 28.0 °F 13.6 °F 25.0 °F 88% 29.68 in 10.0 mi NNE 24.2 mph 34.5 mph N/A   Overcast
2:16 AM 27.0 °F 12.8 °F 23.0 °F 85% 29.76 in 10.0 mi North 21.9 mph 28.8 mph N/A   Scattered Clouds
2:55 AM 24.1 °F 16.0 °F 21.9 °F 91% 29.72 in 10.0 mi NNW 6.9 mph - N/A   Partly Cloudy
3:55 AM 23.0 °F 15.8 °F 19.0 °F 85% 29.75 in 10.0 mi NW 5.8 mph - N/A   Clear
4:55 AM 25.0 °F 10.2 °F 19.0 °F 78% 29.80 in 10.0 mi North 21.9 mph 28.8 mph N/A   Overcast
5:55 AM 23.0 °F 7.2 °F 18.0 °F 81% 29.88 in 10.0 mi North 23.0 mph 28.8 mph N/A   Overcast
6:20 AM 21.0 °F 7.1 °F 17.1 °F 85% 29.82 in 10.0 mi North 16.1 mph - N/A   Overcast
6:55 AM 21.0 °F 7.1 °F 17.1 °F 85% 29.92 in 10.0 mi NNW 16.1 mph - N/A   Overcast
7:30 AM 19.9 °F 6.2 °F 17.1 °F 89% 29.86 in 4.0 mi North 15.0 mph 24.2 mph 0.00 in Snow Light Snow
7:38 AM 19.9 °F 6.2 °F 17.1 °F 89% 29.85 in 1.8 mi North 15.0 mph - 0.00 in Snow Light Snow
7:44 AM 19.9 °F 6.7 °F 17.1 °F 89% 29.86 in 1.0 mi North 13.8 mph - 0.00 in Snow Light Snow
7:55 AM 19.9 °F 7.3 °F 17.1 °F 89% 29.91 in 1.8 mi North 12.7 mph - 0.00 in Snow Light Snow
8:03 AM 19.9 °F 6.7 °F 17.1 °F 89% 29.87 in 2.0 mi North 13.8 mph - 0.00 in Snow Light Snow
8:11 AM 19.9 °F 7.3 °F 17.1 °F 89% 29.89 in 1.2 mi NNW 12.7 mph - 0.01 in Snow Light Snow
8:37 AM 19.9 °F 7.9 °F 17.1 °F 89% 29.89 in 0.5 mi NNW 11.5 mph - 0.01 in Fog , Snow Snow
8:44 AM 19.9 °F 8.6 °F 17.1 °F 89% 29.89 in 0.5 mi North 10.4 mph - 0.02 in Fog , Snow Snow
8:55 AM 19.9 °F 9.3 °F 18.0 °F 92% 29.97 in 0.5 mi NNW 9.2 mph - 0.03 in Fog , Snow Snow
9:11 AM 19.9 °F 8.6 °F 17.1 °F 89% 29.90 in 0.8 mi NNW 10.4 mph - 0.01 in Snow Light Snow
9:20 AM 19.9 °F 8.6 °F 17.1 °F 89% 29.91 in 1.0 mi NNW 10.4 mph - 0.01 in Snow Light Snow
9:27 AM 19.9 °F 7.9 °F 17.1 °F 89% 29.91 in 0.5 mi North 11.5 mph - 0.01 in Fog , Snow Snow
9:37 AM 19.0 °F 6.8 °F 17.1 °F 92% 29.92 in 0.2 mi North 11.5 mph - 0.03 in Fog , Snow Heavy Snow
9:55 AM 19.9 °F 7.3 °F 17.1 °F 89% 29.98 in 0.2 mi NNE 12.7 mph - 0.04 in Fog , Snow Heavy Snow
10:18 AM 19.0 °F 6.1 °F 17.1 °F 92% 29.91 in 0.5 mi NNE 12.7 mph - 0.01 in Fog , Snow Snow
10:25 AM 19.0 °F 5.0 °F 16.0 °F 88% 29.90 in 0.8 mi NE 15.0 mph - 0.03 in Snow Light Snow
10:30 AM 19.0 °F 5.6 °F 16.0 °F 88% 29.91 in 1.0 mi NE 13.8 mph - 0.03 in Snow Light Snow
10:42 AM 19.0 °F 6.8 °F 16.0 °F 88% 29.90 in 0.8 mi NE 11.5 mph - 0.04 in Snow Light Snow
10:55 AM 19.0 °F 6.8 °F 16.0 °F 88% 29.98 in 0.5 mi NE 11.5 mph - 0.04 in Fog , Snow Snow
11:55 AM 19.9 °F 10.1 °F 17.1 °F 89% 29.95 in 1.0 mi NNE 8.1 mph - 0.04 in Snow Light Snow
12:02 PM 19.9 °F 9.3 °F 17.1 °F 89% 29.87 in 0.5 mi NNE 9.2 mph - 0.00 in Fog , Snow Snow
12:44 PM 19.0 °F 5.6 °F 16.0 °F 88% 29.85 in 0.8 mi North 13.8 mph - 0.02 in Snow Light Snow
12:53 PM 19.4 °F 6.6 °F 15.8 °F 86% 29.85 in 1.2 mi North 12.7 mph - 0.02 in Snow Light Snow
12:55 PM 19.0 °F 5.6 °F 15.1 °F 85% 29.92 in 1.2 mi North 13.8 mph - 0.02 in Snow Light Snow
1:21 PM 18.0 °F 4.2 °F 14.0 °F 84% 29.85 in 0.8 mi NNE 13.8 mph - 0.01 in Snow Light Snow
1:40 PM 17.1 °F 1.5 °F 12.9 °F 84% 29.85 in 1.0 mi NNE 17.3 mph - 0.01 in Snow Light Snow
1:55 PM 17.1 °F 0.6 °F 12.9 °F 84% 29.95 in 1.2 mi NNE 19.6 mph - 0.01 in Snow Light Snow
2:22 PM 16.0 °F -0.4 °F 12.0 °F 84% 29.88 in 2.0 mi North 18.4 mph - 0.00 in Snow Light Snow
2:39 PM 15.1 °F -3.7 °F 10.9 °F 84% 29.89 in 3.0 mi North 24.2 mph - 0.00 in   Overcast
2:55 PM 15.1 °F -2.5 °F 12.0 °F 88% 30.02 in 3.0 mi North 20.7 mph - 0.00 in   Overcast
3:09 PM 15.1 °F -2.5 °F 10.9 °F 84% 29.90 in 2.0 mi North 20.7 mph - 0.00 in Snow Light Snow
3:17 PM 15.1 °F -2.9 °F 10.9 °F 84% 29.90 in 1.2 mi North 21.9 mph - 0.00 in Snow Light Snow
3:37 PM 15.1 °F -1.1 °F 10.9 °F 84% 29.91 in 1.8 mi North 17.3 mph - 0.00 in Snow Light Snow
3:45 PM 15.1 °F -1.1 °F 10.9 °F 84% 29.92 in 2.5 mi North 17.3 mph - 0.00 in Snow Light Snow
3:53 PM 15.8 °F 0.3 °F 10.4 °F 79% 29.93 in 4.0 mi North 16.1 mph - 0.00 in   Overcast
3:55 PM 15.1 °F -0.6 °F 10.9 °F 84% 30.06 in 5.0 mi North 16.1 mph - 0.00 in   Overcast
4:55 PM 14.0 °F -1.4 °F 10.0 °F 84% 30.07 in 9.0 mi North 15.0 mph - 0.00 in   Overcast
5:55 PM 12.9 °F 3.8 °F 8.1 °F 81% 30.13 in 10.0 mi North 5.8 mph - N/A   Overcast
6:55 PM 9.0 °F 0.6 °F 5.0 °F 84% 30.18 in 10.0 mi West 4.6 mph - N/A   Overcast
7:55 PM 8.1 °F -0.5 °F 3.9 °F 83% 30.19 in 10.0 mi NNW 4.6 mph - N/A   Scattered Clouds
8:55 PM 3.0 °F - 1.0 °F 91% 30.23 in 10.0 mi Calm Calm - N/A   Mostly Cloudy
9:55 PM 1.0 °F - -0.9 °F 91% 30.24 in 10.0 mi Calm Calm - N/A   Mostly Cloudy
10:55 PM -2.9 °F -11.2 °F -5.1 °F 90% 30.26 in 10.0 mi NW 3.5 mph - N/A   Mostly Cloudy
11:47 PM -4.0 °F - -7.1 °F 87% 30.03 in 10.0 mi Calm Calm - N/A   Mostly Cloudy
11:53 PM -4.0 °F -12.4 °F -7.6 °F 85% 30.02 in 2.5 mi WSW 3.5 mph - N/A   Mostly Cloudy
11:55 PM -2.9 °F -11.2 °F -6.0 °F 87% 30.24 in 1.0 mi WSW 3.5 mph - N/A   Mostly Cloudy